Weather History for Ashtabula, OH

Change the Weather History Date:

Saturday, March 1, 2014

  Actual Average (KYNG) Record (KYNG)
Temperature  
Mean Temperature 28 °F 32 °F  
Max Temperature 39 °F 40 °F 68 °F (1939)
Min Temperature 16 °F 23 °F -2 °F (1980)
Degree Days  
Heating Degree Days 38 33  
Month to date heating degree days 33  
Since 1 July heating degree days 4681  
Cooling Degree Days 0 0  
Month to date cooling degree days 0  
Year to date cooling degree days 0  
Moisture  
Dew Point 12 °F    
Average Humidity 59    
Maximum Humidity 86    
Minimum Humidity 36    
Precipitation  
Precipitation 0.03 in 0.09 in 1.53 in (1954)
Month to date precipitation 0.09  
Year to date precipitation 4.79  
Snow  
Snow 0.00 in 0.40 in - ()
Month to date snowfall 0.4  
Since 1 July snowfall 49.2  
Snow Depth -    
Sea Level Pressure  
Sea Level Pressure 30.16 in    
Wind  
Wind Speed 8 mph (West)    
Max Wind Speed 12 mph    
Max Gust Speed 17 mph    
Visibility 8 miles    
Events Snow    
T = Trace of Precipitation, MM = Missing Value Source: NWS Daily Summary

Daily Weather History Graph

Daily Weather History Graph

Search for Another Location

Airport:

Trip Planner

Search our weather history database for the weather conditions in past years. The results will help you decide how hot, cold, wet, or windy it might be!

Date:

Astronomy

Mar. 01, 2014 Rise Set
Actual Time 6:57 AM EST 6:13 PM EST
Civil Twilight 6:29 AM EST 6:41 PM EST
Nautical Twilight 5:57 AM EST 7:13 PM EST
Astronomical Twilight 5:25 AM EST 7:45 PM EST
Moon 6:49 AM EST (3/1) 7:00 PM EST (3/1)
Length of Visible Light 12h 11m
Length of Day
11h 15m
New Moon, 0% of the Moon is Illuminated
Mar 1
New Moon
Mar 8
First Quarter
Mar 16
Full
Mar 23
Last Quarter
Mar 30
New

Hourly Weather History & Observations

Time (EST) Temp. Windchill Dew Point Humidity Pressure Visibility Wind Dir Wind Speed Gust Speed Precip Events Conditions
12:53 AM 19.0 °F 6.8 °F -2.0 °F 40% 30.17 in 10.0 mi SSE 11.5 mph - N/A   Clear
1:53 AM 18.0 °F 8.7 °F -2.0 °F 41% 30.17 in 10.0 mi SSE 6.9 mph - N/A   Clear
2:53 AM 17.1 °F 8.7 °F -2.0 °F 43% 30.14 in 10.0 mi South 5.8 mph - N/A   Clear
3:53 AM 16.0 °F 7.4 °F -2.0 °F 45% 30.14 in 10.0 mi South 5.8 mph - N/A   Clear
4:53 AM 17.1 °F 6.6 °F -0.0 °F 47% 30.13 in 10.0 mi South 8.1 mph - N/A   Clear
5:53 AM 19.0 °F 8.2 °F 1.9 °F 47% 30.14 in 10.0 mi South 9.2 mph - N/A   Scattered Clouds
6:53 AM 19.9 °F 12.1 °F 3.9 °F 50% 30.15 in 10.0 mi South 5.8 mph - N/A   Overcast
7:53 AM 21.9 °F 14.5 °F 5.0 °F 48% 30.16 in 10.0 mi South 5.8 mph - N/A   Overcast
8:53 AM 26.1 °F 20.5 °F 8.1 °F 47% 30.16 in 10.0 mi South 4.6 mph - N/A   Overcast
9:53 AM 30.9 °F 23.5 °F 10.0 °F 42% 30.16 in 10.0 mi SSW 8.1 mph - N/A   Overcast
10:53 AM 33.1 °F 26.1 °F 10.9 °F 40% 30.15 in 10.0 mi SSW 8.1 mph - 0.03 in   Overcast
11:53 AM 34.0 °F 28.0 °F 12.0 °F 40% 30.16 in 10.0 mi SW 6.9 mph - N/A   Overcast
12:53 PM 37.0 °F 30.4 °F 12.9 °F 37% 30.13 in 10.0 mi SSW 9.2 mph - N/A   Mostly Cloudy
1:53 PM 39.0 °F 32.3 °F 14.0 °F 36% 30.09 in 10.0 mi SSW 10.4 mph - N/A   Overcast
2:53 PM 39.9 °F 33.4 °F 15.1 °F 36% 30.09 in 10.0 mi SSW 10.4 mph - N/A   Overcast
3:53 PM 37.9 °F 32.1 °F 17.1 °F 43% 30.10 in 10.0 mi NW 8.1 mph - N/A   Overcast
4:53 PM 35.1 °F 27.4 °F 17.1 °F 48% 30.12 in 10.0 mi NW 10.4 mph - N/A   Overcast
5:53 PM 32.0 °F 24.2 °F 21.0 °F 64% 30.14 in 10.0 mi NW 9.2 mph - N/A   Overcast
6:53 PM 30.0 °F 22.4 °F 21.0 °F 69% 30.15 in 10.0 mi NW 8.1 mph - N/A   Overcast
7:53 PM 28.0 °F 20.8 °F 21.9 °F 78% 30.17 in 6.0 mi NNW 6.9 mph - N/A   Haze
8:10 PM 26.6 °F 18.2 °F 21.2 °F 80% 30.14 in 6.0 mi NNW 8.1 mph - N/A   Haze
8:53 PM 26.1 °F 18.4 °F 21.0 °F 81% 30.19 in 6.0 mi NNW 6.9 mph - N/A   Haze
9:53 PM 23.0 °F 13.1 °F 18.0 °F 81% 30.19 in 9.0 mi North 9.2 mph - N/A   Overcast
10:53 PM 21.0 °F 10.6 °F 15.1 °F 78% 30.22 in 9.0 mi North 9.2 mph 17.3 mph N/A   Overcast
11:22 PM 19.4 °F 8.6 °F 15.8 °F 86% 30.19 in 3.0 mi North 9.2 mph - 0.00 in Snow Light Snow
11:29 PM 19.4 °F 9.5 °F 15.8 °F 86% 30.19 in 2.0 mi North 8.1 mph - 0.00 in Snow Light Snow
11:38 PM 19.4 °F 12.8 °F 15.8 °F 86% 30.19 in 1.5 mi North 4.6 mph - 0.00 in Snow Light Snow
11:49 PM 19.4 °F 7.9 °F 15.8 °F 86% 30.19 in 1.0 mi North 10.4 mph 16.1 mph 0.00 in Snow Light Snow
11:53 PM 19.0 °F 8.2 °F 14.0 °F 81% 30.23 in 1.0 mi North 9.2 mph 16.1 mph 0.00 in Snow Light Snow
11:56 PM 19.4 °F 9.5 °F 12.2 °F 74% 30.19 in 1.0 mi North 8.1 mph 16.1 mph 0.00 in Snow Light Snow